| time (UTC) | temp F | wind direction | speed MPH | gust MPH | rain 1hr in | rain 24hr in | rain mn in | humidity % | barometer mb |
| 20260905082601 | 62 | 357 | 0.0 | 0.0 | 0.00 | 0.00 | 0.00 | 94 | |
| 20260905082057 | 62 | 0 | 0.0 | 1.0 | 0.00 | 0.00 | 0.00 | 94 | |
| 20260905081556 | 62 | 349 | 0.0 | 0.0 | 0.00 | 0.00 | 0.00 | 94 | |
| 20260905081051 | 62 | 357 | 0.0 | 0.0 | 0.00 | 0.00 | 0.00 | 94 | |
| 20260905080550 | 62 | 357 | 0.0 | 0.0 | 0.00 | 0.00 | 0.00 | 94 | |
| 20260905080045 | 62 | 11 | 0.0 | 0.0 | 0.00 | 0.00 | 0.00 | 94 | |
| 20260905075539 | 62 | 359 | 0.0 | 0.0 | 0.00 | 0.00 | 0.00 | 93 | |
| 20260905075038 | 62 | 357 | 0.0 | 0.0 | 0.00 | 0.00 | 0.00 | 93 | |
| 20260905074532 | 62 | 13 | 0.0 | 0.0 | 0.00 | 0.00 | 0.00 | 93 | |
| 20260905074029 | 62 | 0 | 0.0 | 0.0 | 0.00 | 0.00 | 0.00 | 93 | |
| 20260905073524 | 62 | 357 | 0.0 | 0.0 | 0.00 | 0.00 | 0.00 | 93 | |
| 20260905073020 | 62 | 356 | 0.0 | 0.0 | 0.00 | 0.00 | 0.00 | 92 | |
| 20260905072519 | 62 | 26 | 0.0 | 0.0 | 0.00 | 0.00 | 0.00 | 92 | |
| 20260905072015 | 62 | 346 | 0.0 | 1.0 | 0.00 | 0.00 | 0.00 | 92 | |
| 20260905071511 | 62 | 357 | 0.0 | 0.0 | 0.00 | 0.00 | 0.00 | 92 | |
| 20260905071011 | 62 | 1 | 1.0 | 1.0 | 0.00 | 0.00 | 0.00 | 92 | |
| 20260905070506 | 63 | 359 | 0.0 | 0.0 | 0.00 | 0.00 | 0.00 | 91 | |
| 20260905070001 | 63 | 358 | 0.0 | 1.0 | 0.00 | 0.00 | 0.00 | 91 | |
| 20260905065459 | 63 | 10 | 0.0 | 1.0 | 0.00 | 0.00 | 0.00 | 91 | |
| 20260905064955 | 63 | 359 | 0.0 | 1.0 | 0.00 | 0.00 | 0.00 | 90 | |
| 20260905064449 | 63 | 358 | 0.0 | 2.0 | 0.00 | 0.00 | 0.00 | 90 | |
| 20260905063944 | 63 | 6 | 0.0 | 0.0 | 0.00 | 0.00 | 0.00 | 90 | |
| 20260905063439 | 63 | 357 | 1.0 | 2.0 | 0.00 | 0.00 | 0.00 | 89 | |
| 20260905062930 | 63 | 354 | 0.0 | 1.0 | 0.00 | 0.00 | 0.00 | 89 | |
| 20260905062430 | 63 | 353 | 0.0 | 0.0 | 0.00 | 0.00 | 0.00 | 88 | |
| 20260905061925 | 63 | 74 | 0.0 | 1.0 | 0.00 | 0.00 | 0.00 | 88 | |
| 20260905061425 | 63 | 5 | 1.0 | 3.0 | 0.00 | 0.00 | 0.00 | 88 | |
| 20260905060924 | 64 | 6 | 0.0 | 0.0 | 0.00 | 0.00 | 0.00 | 87 | |
| 20260905060421 | 64 | 351 | 1.0 | 2.0 | 0.00 | 0.00 | 0.00 | 87 | |
| 20260905055919 | 64 | 6 | 0.0 | 0.0 | 0.00 | 0.00 | 0.00 | 86 | |
| 20260905055415 | 64 | 1 | 0.0 | 0.0 | 0.00 | 0.00 | 0.00 | 85 | |
| 20260905054914 | 64 | 359 | 0.0 | 0.0 | 0.00 | 0.00 | 0.00 | 85 | |
| 20260905054410 | 64 | 352 | 0.0 | 0.0 | 0.00 | 0.00 | 0.00 | 84 | |
| 20260905053910 | 65 | 5 | 0.0 | 0.0 | 0.00 | 0.00 | 0.00 | 84 | |
| 20260905053405 | 65 | 355 | 0.0 | 0.0 | 0.00 | 0.00 | 0.00 | 83 | |
| 20260905052901 | 65 | 10 | 0.0 | 0.0 | 0.00 | 0.00 | 0.00 | 83 | |
| 20260905052400 | 65 | 2 | 0.0 | 0.0 | 0.00 | 0.00 | 0.00 | 83 | |
| 20260905051859 | 64 | 8 | 0.0 | 0.0 | 0.00 | 0.00 | 0.00 | 83 | |
| 20260905051355 | 64 | 0 | 0.0 | 0.0 | 0.00 | 0.00 | 0.00 | 83 | |
| 20260905050853 | 64 | 1 | 0.0 | 0.0 | 0.00 | 0.00 | 0.00 | 83 | |
| 20260905050348 | 64 | 353 | 0.0 | 0.0 | 0.00 | 0.00 | 0.00 | 83 | |
| 20260905045848 | 64 | 0 | 0.0 | 0.0 | 0.00 | 0.00 | 0.00 | 83 | |
| 20260905045343 | 64 | 1 | 0.0 | 0.0 | 0.00 | 0.00 | 0.00 | 83 | |
| 20260905044839 | 64 | 356 | 0.0 | 0.0 | 0.00 | 0.00 | 0.00 | 83 | |
| 20260905044334 | 64 | 6 | 0.0 | 0.0 | 0.00 | 0.00 | 0.00 | 83 | |
| 20260905043832 | 64 | 351 | 0.0 | 0.0 | 0.00 | 0.00 | 0.00 | 83 | |
| 20260905043328 | 64 | 355 | 0.0 | 0.0 | 0.00 | 0.00 | 0.00 | 83 | |
| 20260905042823 | 64 | 0 | 0.0 | 0.0 | 0.00 | 0.00 | 0.00 | 83 | |
| 20260905042322 | 64 | 355 | 0.0 | 0.0 | 0.00 | 0.00 | 0.00 | 83 | |
| 20260905041817 | 64 | 3 | 0.0 | 0.0 | 0.00 | 0.00 | 0.00 | 83 | |
| 20260905041314 | 64 | 356 | 0.0 | 0.0 | 0.00 | 0.00 | 0.00 | 83 | |
| 20260905040808 | 64 | 356 | 0.0 | 0.0 | 0.00 | 0.00 | 0.00 | 84 | |
| 20260905040307 | 64 | 356 | 0.0 | 0.0 | 0.00 | 0.00 | 0.00 | 84 | |
| 20260905035802 | 64 | 356 | 0.0 | 0.0 | 0.00 | 0.00 | 0.00 | 84 | |
| 20260905035258 | 64 | 356 | 0.0 | 0.0 | 0.00 | 0.00 | 0.00 | 83 | |
| 20260905034754 | 64 | 356 | 0.0 | 0.0 | 0.00 | 0.00 | 0.00 | 83 | |
| 20260905034254 | 65 | 356 | 0.0 | 0.0 | 0.00 | 0.00 | 0.00 | 83 | |
| 20260905033753 | 65 | 356 | 0.0 | 0.0 | 0.00 | 0.00 | 0.00 | 82 | |
| 20260905033248 | 65 | 356 | 0.0 | 0.0 | 0.00 | 0.00 | 0.00 | 82 | |
| 20260905032748 | 65 | 356 | 0.0 | 0.0 | 0.00 | 0.00 | 0.00 | 82 | |
| 20260905032243 | 66 | 3 | 0.0 | 0.0 | 0.00 | 0.00 | 0.00 | 81 | |
| 20260905031738 | 66 | 2 | 0.0 | 0.0 | 0.00 | 0.00 | 0.00 | 80 | |
| 20260905031234 | 66 | 3 | 0.0 | 0.0 | 0.00 | 0.00 | 0.00 | 80 | |
| 20260905030729 | 66 | 3 | 0.0 | 0.0 | 0.00 | 0.00 | 0.00 | 80 | |
| 20260905030224 | 66 | 2 | 0.0 | 0.0 | 0.00 | 0.00 | 0.00 | 79 | |
| 20260905025719 | 67 | 7 | 0.0 | 0.0 | 0.00 | 0.00 | 0.00 | 78 | |
| 20260905025214 | 67 | 4 | 0.0 | 0.0 | 0.00 | 0.00 | 0.00 | 78 | |
| 20260905024710 | 67 | 3 | 0.0 | 0.0 | 0.00 | 0.00 | 0.00 | 77 | |
| 20260905024206 | 67 | 2 | 0.0 | 0.0 | 0.00 | 0.00 | 0.00 | 77 | |
| 20260905023700 | 68 | 357 | 0.0 | 1.0 | 0.00 | 0.00 | 0.00 | 76 | |
| 20260905023155 | 68 | 357 | 0.0 | 1.0 | 0.00 | 0.00 | 0.00 | 76 | |
| 20260905022654 | 68 | 357 | 0.0 | 0.0 | 0.00 | 0.00 | 0.00 | 76 | |
| 20260905022149 | 68 | 6 | 0.0 | 0.0 | 0.00 | 0.00 | 0.00 | 75 | |
| 20260905021649 | 68 | 24 | 0.0 | 1.0 | 0.00 | 0.00 | 0.00 | 75 | |
| 20260905021144 | 68 | 5 | 0.0 | 0.0 | 0.00 | 0.00 | 0.00 | 75 | |
| 20260905020639 | 68 | 357 | 0.0 | 0.0 | 0.00 | 0.00 | 0.00 | 75 | |
| 20260905020134 | 68 | 357 | 0.0 | 1.0 | 0.00 | 0.00 | 0.00 | 75 | |
| 20260905015633 | 68 | 357 | 0.0 | 1.0 | 0.00 | 0.00 | 0.00 | 75 | |
| 20260905015127 | 69 | 357 | 0.0 | 1.0 | 0.00 | 0.00 | 0.00 | 75 | |
| 20260905014621 | 69 | 341 | 0.0 | 0.0 | 0.00 | 0.00 | 0.00 | 74 | |
| 20260905014117 | 69 | 358 | 0.0 | 1.0 | 0.00 | 0.00 | 0.00 | 74 | |
| 20260905013613 | 69 | 0 | 0.0 | 1.0 | 0.00 | 0.00 | 0.00 | 73 | |
| 20260905013109 | 69 | 4 | 0.0 | 1.0 | 0.00 | 0.00 | 0.00 | 73 | |
| 20260905012609 | 69 | 354 | 0.0 | 0.0 | 0.00 | 0.00 | 0.00 | 72 | |
| 20260905012106 | 69 | 3 | 0.0 | 1.0 | 0.00 | 0.00 | 0.00 | 71 | |
| 20260905011601 | 70 | 13 | 0.0 | 1.0 | 0.00 | 0.00 | 0.00 | 71 | |
| 20260905011057 | 70 | 356 | 0.0 | 1.0 | 0.00 | 0.00 | 0.00 | 71 | |
| 20260905010556 | 70 | 62 | 0.0 | 2.0 | 0.00 | 0.00 | 0.00 | 70 | |
| 20260905010053 | 70 | 351 | 0.0 | 2.0 | 0.00 | 0.00 | 0.00 | 70 | |
| 20260905005548 | 70 | 21 | 1.0 | 3.0 | 0.00 | 0.00 | 0.00 | 70 | |
| 20260905005043 | 70 | 44 | 1.0 | 3.0 | 0.00 | 0.00 | 0.00 | 71 | |
| 20260905004538 | 70 | 31 | 0.0 | 0.0 | 0.00 | 0.00 | 0.00 | 71 | |
| 20260905004033 | 71 | 9 | 0.0 | 0.0 | 0.00 | 0.00 | 0.00 | 71 | |
| 20260905003529 | 71 | 7 | 0.0 | 1.0 | 0.00 | 0.00 | 0.00 | 70 | |
| 20260905003025 | 71 | 0 | 0.0 | 3.0 | 0.00 | 0.00 | 0.00 | 69 | |
| 20260905002520 | 71 | 45 | 2.0 | 5.0 | 0.00 | 0.00 | 0.00 | 68 | |
| 20260905002020 | 71 | 10 | 0.0 | 3.0 | 0.00 | 0.00 | 0.00 | 69 | |
| 20260905001515 | 71 | 9 | 0.0 | 2.0 | 0.00 | 0.00 | 0.00 | 70 | |
| 20260905001009 | 71 | 147 | 1.0 | 3.0 | 0.00 | 0.00 | 0.00 | 69 | |
| 20260905000504 | 71 | 359 | 0.0 | 1.0 | 0.00 | 0.00 | 0.00 | 69 | |
| 20260905000000 | 71 | 1 | 0.0 | 1.0 | 0.00 | 0.00 | 0.00 | 69 | |
| 20260904235455 | 72 | 341 | 2.0 | 3.0 | 0.00 | 0.00 | 0.00 | 69 | |
| 20260904234949 | 72 | 23 | 0.0 | 5.0 | 0.00 | 0.00 | 0.00 | 69 | |
| 20260904234449 | 72 | 355 | 3.0 | 3.0 | 0.00 | 0.00 | 0.00 | 69 | |
| 20260904233945 | 72 | 359 | 0.0 | 2.0 | 0.00 | 0.00 | 0.00 | 70 | |
| 20260904233440 | 73 | 2 | 2.0 | 2.0 | 0.00 | 0.00 | 0.00 | 71 | |
| 20260904232937 | 73 | 82 | 0.0 | 1.0 | 0.00 | 0.00 | 0.00 | 71 | |
| 20260904232433 | 73 | 9 | 1.0 | 5.0 | 0.00 | 0.00 | 0.00 | 71 | |
| 20260904231930 | 73 | 43 | 1.0 | 3.0 | 0.00 | 0.00 | 0.00 | 71 | |
| 20260904231429 | 74 | 349 | 1.0 | 6.0 | 0.00 | 0.00 | 0.00 | 70 | |
| 20260904230925 | 74 | 10 | 1.0 | 2.0 | 0.00 | 0.00 | 0.00 | 70 | |
| 20260904230423 | 74 | 349 | 2.0 | 2.0 | 0.00 | 0.00 | 0.00 | 70 | |
| 20260904225918 | 74 | 359 | 1.0 | 3.0 | 0.00 | 0.00 | 0.00 | 71 | |
| 20260904225417 | 75 | 17 | 1.0 | 2.0 | 0.00 | 0.00 | 0.00 | 71 | |
| 20260904224911 | 74 | 69 | 1.0 | 3.0 | 0.00 | 0.00 | 0.00 | 71 | |
| 20260904224407 | 75 | 340 | 2.0 | 2.0 | 0.00 | 0.00 | 0.00 | 71 | |
| 20260904223901 | 75 | 6 | 2.0 | 3.0 | 0.00 | 0.00 | 0.00 | 71 | |
| 20260904223400 | 75 | 16 | 0.0 | 2.0 | 0.00 | 0.00 | 0.00 | 72 | |
| 20260904222856 | 75 | 11 | 1.0 | 2.0 | 0.00 | 0.00 | 0.00 | 72 | |
| 20260904222357 | 75 | 353 | 0.0 | 1.0 | 0.00 | 0.00 | 0.00 | 72 | |
| 20260904221856 | 75 | 25 | 1.0 | 1.0 | 0.00 | 0.00 | 0.00 | 72 | |
| 20260904221351 | 75 | 17 | 0.0 | 1.0 | 0.00 | 0.00 | 0.00 | 72 | |
| 20260904220846 | 75 | 353 | 0.0 | 1.0 | 0.00 | 0.00 | 0.00 | 72 | |
| 20260904220346 | 75 | 327 | 0.0 | 1.0 | 0.00 | 0.00 | 0.00 | 71 | |
| 20260904215841 | 76 | 354 | 0.0 | 1.0 | 0.00 | 0.00 | 0.00 | 71 | |
| 20260904215336 | 76 | 5 | 0.0 | 1.0 | 0.00 | 0.00 | 0.00 | 70 | |
| 20260904214832 | 76 | 6 | 0.0 | 1.0 | 0.00 | 0.00 | 0.00 | 70 | |
| 20260904214328 | 76 | 359 | 0.0 | 2.0 | 0.00 | 0.00 | 0.00 | 69 | |
| 20260904213826 | 76 | 9 | 0.0 | 1.0 | 0.00 | 0.00 | 0.00 | 69 | |
| 20260904213321 | 76 | 10 | 0.0 | 2.0 | 0.00 | 0.00 | 0.00 | 69 | |
| 20260904212818 | 77 | 5 | 1.0 | 2.0 | 0.00 | 0.00 | 0.00 | 68 | |
| 20260904212317 | 77 | 150 | 1.0 | 3.0 | 0.00 | 0.00 | 0.00 | 67 | |
| 20260904211813 | 77 | 19 | 1.0 | 2.0 | 0.00 | 0.00 | 0.00 | 67 | |
| 20260904211308 | 77 | 24 | 2.0 | 6.0 | 0.00 | 0.00 | 0.00 | 66 | |
| 20260904210802 | 77 | 345 | 1.0 | 2.0 | 0.00 | 0.00 | 0.00 | 66 | |
| 20260904210256 | 78 | 0 | 0.0 | 1.0 | 0.00 | 0.00 | 0.00 | 66 | |
| 20260904205753 | 79 | 3 | 0.0 | 1.0 | 0.00 | 0.00 | 0.00 | 64 | |
| 20260904205248 | 79 | 14 | 0.0 | 2.0 | 0.00 | 0.00 | 0.00 | 63 | |
| 20260904204745 | 78 | 353 | 1.0 | 1.0 | 0.00 | 0.00 | 0.00 | 63 | |
| 20260904204241 | 77 | 359 | 1.0 | 1.0 | 0.00 | 0.00 | 0.00 | 65 | |
| 20260904203737 | 76 | 3 | 0.0 | 2.0 | 0.00 | 0.00 | 0.00 | 66 | |
| 20260904203233 | 77 | 15 | 0.0 | 1.0 | 0.00 | 0.00 | 0.00 | 67 | |
| 20260904202729 | 77 | 13 | 2.0 | 2.0 | 0.00 | 0.00 | 0.00 | 64 | |
| 20260904202225 | 77 | 355 | 0.0 | 2.0 | 0.00 | 0.00 | 0.00 | 64 | |
| 20260904201720 | 76 | 5 | 2.0 | 5.0 | 0.00 | 0.00 | 0.00 | 65 | |
| 20260904201220 | 76 | 4 | 0.0 | 0.0 | 0.00 | 0.00 | 0.00 | 67 | |
| 20260904200714 | 76 | 10 | 1.0 | 3.0 | 0.00 | 0.00 | 0.00 | 66 | |
| 20260904200209 | 76 | 20 | 0.0 | 3.0 | 0.00 | 0.00 | 0.00 | 66 | |
| 20260904195708 | 77 | 36 | 3.0 | 5.0 | 0.00 | 0.00 | 0.00 | 64 | |
| 20260904195207 | 76 | 13 | 0.0 | 3.0 | 0.00 | 0.00 | 0.00 | 65 | |
| 20260904194702 | 76 | 34 | 2.0 | 3.0 | 0.00 | 0.00 | 0.00 | 65 | |
| 20260904194201 | 76 | 51 | 2.0 | 2.0 | 0.00 | 0.00 | 0.00 | 65 | |
| 20260904193657 | 76 | 22 | 2.0 | 6.0 | 0.00 | 0.00 | 0.00 | 65 | |
| 20260904193153 | 75 | 359 | 0.0 | 5.0 | 0.00 | 0.00 | 0.00 | 66 | |
| 20260904192653 | 75 | 14 | 3.0 | 3.0 | 0.00 | 0.00 | 0.00 | 65 | |
| 20260904192149 | 76 | 22 | 1.0 | 3.0 | 0.00 | 0.00 | 0.00 | 64 | |
| 20260904191645 | 75 | 357 | 1.0 | 2.0 | 0.00 | 0.00 | 0.00 | 64 | |
| 20260904191141 | 75 | 358 | 4.0 | 5.0 | 0.00 | 0.00 | 0.00 | 64 | |
| 20260904190637 | 75 | 34 | 1.0 | 5.0 | 0.00 | 0.00 | 0.00 | 65 | |
| 20260904190133 | 75 | 12 | 0.0 | 6.0 | 0.00 | 0.00 | 0.00 | 63 | |
| 20260904185629 | 75 | 11 | 1.0 | 3.0 | 0.00 | 0.00 | 0.00 | 63 | |
| 20260904185124 | 75 | 10 | 2.0 | 6.0 | 0.00 | 0.00 | 0.00 | 63 | |
| 20260904184622 | 75 | 2 | 2.0 | 3.0 | 0.00 | 0.00 | 0.00 | 64 | |
| 20260904184119 | 74 | 15 | 1.0 | 2.0 | 0.00 | 0.00 | 0.00 | 66 | |
| 20260904183614 | 74 | 353 | 1.0 | 6.0 | 0.00 | 0.00 | 0.00 | 66 | |
| 20260904183108 | 74 | 1 | 1.0 | 5.0 | 0.00 | 0.00 | 0.00 | 69 | |
| 20260904182604 | 74 | 351 | 1.0 | 6.0 | 0.00 | 0.00 | 0.00 | 69 | |
| 20260904182058 | 74 | 59 | 1.0 | 5.0 | 0.00 | 0.00 | 0.00 | 72 | |
| 20260904181555 | 74 | 19 | 1.0 | 7.0 | 0.00 | 0.00 | 0.00 | 71 | |
| 20260904181054 | 74 | 7 | 1.0 | 3.0 | 0.00 | 0.00 | 0.00 | 72 | |
| 20260904180549 | 76 | 139 | 4.0 | 7.0 | 0.00 | 0.00 | 0.00 | 71 | |
| 20260904180044 | 76 | 25 | 0.0 | 3.0 | 0.00 | 0.00 | 0.00 | 65 | |
| 20260904175538 | 76 | 39 | 3.0 | 7.0 | 0.00 | 0.00 | 0.00 | 63 | |
| 20260904175036 | 76 | 345 | 1.0 | 5.0 | 0.00 | 0.00 | 0.00 | 63 | |
| 20260904174532 | 76 | 343 | 0.0 | 2.0 | 0.00 | 0.00 | 0.00 | 64 | |
| 20260904174029 | 77 | 324 | 3.0 | 5.0 | 0.00 | 0.00 | 0.00 | 62 | |
| 20260904173528 | 76 | 6 | 0.0 | 2.0 | 0.00 | 0.00 | 0.00 | 63 | |
| 20260904173024 | 77 | 10 | 0.0 | 2.0 | 0.00 | 0.00 | 0.00 | 63 | |
| 20260904172520 | 77 | 30 | 1.0 | 2.0 | 0.00 | 0.00 | 0.00 | 62 | |
| 20260904172019 | 77 | 1 | 0.0 | 1.0 | 0.00 | 0.00 | 0.00 | 62 | |
| 20260904171514 | 77 | 30 | 0.0 | 3.0 | 0.00 | 0.00 | 0.00 | 63 | |
| 20260904171010 | 78 | 344 | 0.0 | 3.0 | 0.00 | 0.00 | 0.00 | 64 | |
| 20260904170505 | 79 | 273 | 3.0 | 5.0 | 0.00 | 0.00 | 0.00 | 59 | |
| 20260904170001 | 79 | 352 | 0.0 | 2.0 | 0.00 | 0.00 | 0.00 | 64 | |
| 20260904165500 | 79 | 318 | 0.0 | 1.0 | 0.00 | 0.00 | 0.00 | 61 | |
| 20260904164959 | 80 | 340 | 0.0 | 1.0 | 0.00 | 0.00 | 0.00 | 59 | |
| 20260904164454 | 80 | 326 | 2.0 | 2.0 | 0.00 | 0.00 | 0.00 | 58 | |
| 20260904163950 | 81 | 13 | 1.0 | 1.0 | 0.00 | 0.00 | 0.00 | 58 | |
| 20260904163449 | 80 | 318 | 1.0 | 2.0 | 0.00 | 0.00 | 0.00 | 60 | |
| 20260904162944 | 80 | 324 | 0.0 | 1.0 | 0.00 | 0.00 | 0.00 | 60 | |
| 20260904162439 | 79 | 337 | 0.0 | 1.0 | 0.00 | 0.00 | 0.00 | 60 | |
| 20260904161934 | 79 | 326 | 1.0 | 1.0 | 0.00 | 0.00 | 0.00 | 59 | |
| 20260904161430 | 79 | 9 | 1.0 | 1.0 | 0.00 | 0.00 | 0.00 | 61 | |
| 20260904160925 | 78 | 332 | 0.0 | 2.0 | 0.00 | 0.00 | 0.00 | 63 | |
| 20260904160420 | 77 | 345 | 0.0 | 1.0 | 0.00 | 0.00 | 0.00 | 64 | |
| 20260904155915 | 78 | 27 | 2.0 | 3.0 | 0.00 | 0.00 | 0.00 | 60 | |
| 20260904155409 | 77 | 287 | 1.0 | 2.0 | 0.00 | 0.00 | 0.00 | 62 | |
| 20260904154908 | 78 | 355 | 0.0 | 5.0 | 0.00 | 0.00 | 0.00 | 59 | |
| 20260904154403 | 77 | 11 | 0.0 | 2.0 | 0.00 | 0.00 | 0.00 | 61 | |
| 20260904153859 | 76 | 349 | 0.0 | 0.0 | 0.00 | 0.00 | 0.00 | 64 | |
| 20260904153354 | 77 | 354 | 0.0 | 1.0 | 0.00 | 0.00 | 0.00 | 63 | |
| 20260904152850 | 77 | 352 | 0.0 | 2.0 | 0.00 | 0.00 | 0.00 | 63 | |
| 20260904152350 | 77 | 347 | 0.0 | 2.0 | 0.00 | 0.00 | 0.00 | 60 | |
| 20260904151849 | 77 | 352 | 0.0 | 1.0 | 0.00 | 0.00 | 0.00 | 65 | |
| 20260904151344 | 76 | 293 | 1.0 | 1.0 | 0.00 | 0.00 | 0.00 | 67 | |
| 20260904150840 | 76 | 317 | 0.0 | 1.0 | 0.00 | 0.00 | 0.00 | 68 | |
| 20260904150335 | 75 | 354 | 0.0 | 2.0 | 0.00 | 0.00 | 0.00 | 69 | |
| 20260904145832 | 75 | 317 | 0.0 | 1.0 | 0.00 | 0.00 | 0.00 | 71 | |
| 20260904145329 | 74 | 354 | 0.0 | 2.0 | 0.00 | 0.00 | 0.00 | 70 | |
| 20260904144824 | 74 | 352 | 0.0 | 1.0 | 0.00 | 0.00 | 0.00 | 71 | |
| 20260904144320 | 74 | 339 | 0.0 | 2.0 | 0.00 | 0.00 | 0.00 | 72 | |
| 20260904143815 | 73 | 358 | 0.0 | 3.0 | 0.00 | 0.00 | 0.00 | 72 | |
| 20260904143312 | 73 | 13 | 1.0 | 2.0 | 0.00 | 0.00 | 0.00 | 71 | |
| 20260904142808 | 74 | 29 | 0.0 | 1.0 | 0.00 | 0.00 | 0.00 | 71 | |
| 20260904142306 | 75 | 347 | 0.0 | 1.0 | 0.00 | 0.00 | 0.00 | 70 | |
| 20260904141758 | 75 | 41 | 0.0 | 1.0 | 0.00 | 0.00 | 0.00 | 69 | |
| 20260904141253 | 75 | 296 | 1.0 | 2.0 | 0.00 | 0.00 | 0.00 | 71 | |
| 20260904140749 | 74 | 347 | 0.0 | 1.0 | 0.00 | 0.00 | 0.00 | 72 | |
| 20260904140244 | 74 | 341 | 0.0 | 2.0 | 0.00 | 0.00 | 0.00 | 72 | |
| 20260904135743 | 73 | 160 | 0.0 | 2.0 | 0.00 | 0.00 | 0.00 | 71 | |
| 20260904135238 | 73 | 349 | 0.0 | 1.0 | 0.00 | 0.00 | 0.00 | 72 | |
| 20260904134735 | 72 | 334 | 0.0 | 1.0 | 0.00 | 0.00 | 0.00 | 73 | |
| 20260904134234 | 72 | 345 | 0.0 | 3.0 | 0.00 | 0.00 | 0.00 | 73 | |
| 20260904133728 | 73 | 91 | 0.0 | 0.0 | 0.00 | 0.00 | 0.00 | 72 | |
| 20260904133225 | 72 | 359 | 0.0 | 1.0 | 0.00 | 0.00 | 0.00 | 73 | |
| 20260904132724 | 71 | 351 | 0.0 | 2.0 | 0.00 | 0.00 | 0.00 | 74 | |
| 20260904132220 | 71 | 354 | 0.0 | 2.0 | 0.00 | 0.00 | 0.00 | 75 | |
| 20260904131718 | 70 | 11 | 0.0 | 2.0 | 0.00 | 0.00 | 0.00 | 74 | |
| 20260904131214 | 70 | 353 | 0.0 | 1.0 | 0.00 | 0.00 | 0.00 | 75 | |
| 20260904130709 | 70 | 351 | 0.0 | 0.0 | 0.00 | 0.00 | 0.00 | 74 | |
| 20260904130208 | 70 | 351 | 2.0 | 3.0 | 0.00 | 0.00 | 0.00 | 74 | |
| 20260904125704 | 70 | 356 | 0.0 | 0.0 | 0.00 | 0.00 | 0.00 | 74 | |
| 20260904125200 | 69 | 353 | 0.0 | 0.0 | 0.00 | 0.00 | 0.00 | 75 | |
| 20260904124655 | 69 | 358 | 0.0 | 0.0 | 0.00 | 0.00 | 0.00 | 75 | |
| 20260904124151 | 69 | 353 | 0.0 | 1.0 | 0.00 | 0.00 | 0.00 | 75 | |
| 20260904123650 | 69 | 352 | 0.0 | 0.0 | 0.00 | 0.00 | 0.00 | 76 | |
| 20260904123146 | 68 | 353 | 0.0 | 0.0 | 0.00 | 0.00 | 0.00 | 77 | |
| 20260904122640 | 68 | 347 | 0.0 | 0.0 | 0.00 | 0.00 | 0.00 | 77 | |
| 20260904122136 | 68 | 352 | 0.0 | 0.0 | 0.00 | 0.00 | 0.00 | 77 | |
| 20260904121631 | 68 | 354 | 0.0 | 0.0 | 0.00 | 0.00 | 0.00 | 76 | |
| 20260904121126 | 68 | 357 | 0.0 | 1.0 | 0.00 | 0.00 | 0.00 | 77 | |
| 20260904120623 | 66 | 340 | 0.0 | 0.0 | 0.00 | 0.00 | 0.00 | 78 | |
| 20260904120118 | 66 | 5 | 0.0 | 0.0 | 0.00 | 0.00 | 0.00 | 80 | |
| 20260904115613 | 66 | 359 | 0.0 | 0.0 | 0.00 | 0.00 | 0.00 | 80 | |
| 20260904115108 | 65 | 349 | 0.0 | 0.0 | 0.00 | 0.00 | 0.00 | 81 | |
| 20260904114607 | 64 | 357 | 0.0 | 0.0 | 0.00 | 0.00 | 0.00 | 82 | |
| 20260904114102 | 64 | 9 | 1.0 | 2.0 | 0.00 | 0.00 | 0.00 | 83 | |
| 20260904113557 | 63 | 358 | 0.0 | 1.0 | 0.00 | 0.00 | 0.00 | 84 | |
| 20260904113056 | 63 | 357 | 0.0 | 0.0 | 0.00 | 0.00 | 0.00 | 85 | |
| 20260904112552 | 62 | 357 | 0.0 | 0.0 | 0.00 | 0.00 | 0.00 | 86 | |
| 20260904112048 | 62 | 0 | 0.0 | 0.0 | 0.00 | 0.00 | 0.00 | 86 | |
| 20260904111543 | 62 | 357 | 0.0 | 0.0 | 0.00 | 0.00 | 0.00 | 86 | |
| 20260904111038 | 62 | 358 | 0.0 | 0.0 | 0.00 | 0.00 | 0.00 | 86 | |
| 20260904110532 | 62 | 2 | 0.0 | 0.0 | 0.00 | 0.00 | 0.00 | 86 | |
| 20260904110028 | 62 | 0 | 0.0 | 0.0 | 0.00 | 0.00 | 0.00 | 86 | |
| 20260904105522 | 62 | 0 | 0.0 | 0.0 | 0.00 | 0.00 | 0.00 | 86 | |
| 20260904105017 | 61 | 2 | 0.0 | 0.0 | 0.00 | 0.00 | 0.00 | 86 | |
| 20260904104513 | 61 | 354 | 0.0 | 1.0 | 0.00 | 0.00 | 0.00 | 86 | |
| 20260904104009 | 61 | 359 | 0.0 | 0.0 | 0.00 | 0.00 | 0.00 | 87 | |
| 20260904103504 | 61 | 359 | 0.0 | 0.0 | 0.00 | 0.00 | 0.00 | 87 | |
| 20260904103000 | 62 | 0 | 0.0 | 0.0 | 0.00 | 0.00 | 0.00 | 86 | |
| 20260904102455 | 62 | 4 | 0.0 | 0.0 | 0.00 | 0.00 | 0.00 | 86 | |
| 20260904101950 | 62 | 359 | 0.0 | 0.0 | 0.00 | 0.00 | 0.00 | 86 | |
| 20260904101447 | 62 | 358 | 0.0 | 0.0 | 0.00 | 0.00 | 0.00 | 86 | |
| 20260904100943 | 62 | 0 | 0.0 | 0.0 | 0.00 | 0.00 | 0.00 | 86 | |
| 20260904100438 | 62 | 358 | 0.0 | 0.0 | 0.00 | 0.00 | 0.00 | 85 | |
| 20260904095938 | 63 | 359 | 0.0 | 2.0 | 0.00 | 0.00 | 0.00 | 86 | |
| 20260904095433 | 63 | 2 | 0.0 | 0.0 | 0.00 | 0.00 | 0.00 | 86 | |
| 20260904094927 | 63 | 11 | 1.0 | 2.0 | 0.00 | 0.00 | 0.00 | 86 | |
| 20260904094423 | 62 | 14 | 1.0 | 2.0 | 0.00 | 0.00 | 0.00 | 87 | |
| 20260904093919 | 63 | 0 | 0.0 | 0.0 | 0.00 | 0.00 | 0.00 | 87 | |
| 20260904093414 | 63 | 3 | 0.0 | 0.0 | 0.00 | 0.00 | 0.00 | 86 | |
| 20260904092909 | 63 | 13 | 0.0 | 0.0 | 0.00 | 0.00 | 0.00 | 86 | |
| 20260904092406 | 64 | 9 | 0.0 | 0.0 | 0.00 | 0.00 | 0.00 | 86 | |
| 20260904091901 | 64 | 1 | 0.0 | 0.0 | 0.00 | 0.00 | 0.00 | 86 | |
| 20260904091356 | 64 | 0 | 0.0 | 0.0 | 0.00 | 0.00 | 0.00 | 86 | |
| 20260904090851 | 64 | 358 | 0.0 | 0.0 | 0.00 | 0.00 | 0.00 | 86 | |
| 20260904090347 | 64 | 1 | 0.0 | 0.0 | 0.00 | 0.00 | 0.00 | 85 | |
| 20260904085842 | 65 | 3 | 0.0 | 1.0 | 0.00 | 0.00 | 0.00 | 85 | |
| 20260904085338 | 65 | 4 | 1.0 | 2.0 | 0.00 | 0.00 | 0.00 | 85 | |
| 20260904084837 | 65 | 359 | 0.0 | 0.0 | 0.00 | 0.00 | 0.00 | 84 | |
| 20260904084333 | 66 | 345 | 0.0 | 2.0 | 0.00 | 0.00 | 0.00 | 84 | |
| 20260904083829 | 66 | 356 | 0.0 | 0.0 | 0.00 | 0.00 | 0.00 | 84 | |
| 20260904083326 | 66 | 2 | 0.0 | 0.0 | 0.00 | 0.00 | 0.00 | 84 |